www.pogodaiklimat.ru
ПОГОДА в Аламогордо
Время
и дата
04:35 30.01
04:55 30.01
05:15 30.01
05:35 30.01
05:55 30.01
06:15 30.01
06:35 30.01
06:55 30.01
07:15 30.01
07:35 30.01
07:55 30.01
08:15 30.01
08:35 30.01
08:55 30.01
09:15 30.01
09:35 30.01
09:55 30.01
10:15 30.01
10:35 30.01
10:55 30.01
11:15 30.01
11:35 30.01
11:55 30.01
12:15 30.01
12:35 30.01
12:55 30.01
13:15 30.01
13:35 30.01
13:55 30.01
14:15 30.01
14:35 30.01
14:55 30.01
15:15 30.01
15:35 30.01
15:55 30.01
16:15 30.01
16:35 30.01
16:55 30.01
17:15 30.01
17:35 30.01
17:55 30.01
18:15 30.01
18:35 30.01
18:55 30.01
19:15 30.01
19:35 30.01
19:55 30.01
20:15 30.01
Ветер
(напр.,м/с)
Видим. Явления Облачность Т
(С)
Тd
(С)
f
(%)
Тe
(С)
Тes
(С)
Комфортность P
(гПа)
Po
(гПа)
Тmin
(С)
Tmax
(С)
R
(мм)
R24
(мм)
S
(см)
Ю 4 16 км 5/5 1230 м +4.0 -10.0 35 +1 +1 870.9
Ю 4 16 км 2/2 1200 м +3.0 -11.0 35 -1 -1 870.9
Ю 3 16 км 5/5 1290 м +3.0 -11.0 35 0 0 870.9
Ю 5 16 км 8/8 1020 м +5.0 -11.0 30 +1 +1 870.9
Ю 2 16 км 8/8 1080 м +4.0 -11.0 33 +2 +2 870.9
Ю 3 16 км 8/8 1140 м +3.0 -10.0 38 0 0 870.9
Ю 3 16 км 2/2 1110 м +1.0 -10.0 44 -3 -3 871.1
ЮЗ 3 16 км ясно +1.0 -10.0 44 -3 -3 871.4
Ю 4 16 км ясно +2.0 -10.0 41 -2 -2 871.4
Ю 3 16 км ясно +2.0 -9.0 44 -1 -1 871.4
Ю 4 16 км ясно +5.0 -8.0 38 +2 +2 871.7
нст 2 16 км ясно +7.0 -7.0 36 +6 +7 872.0
Ю 4 16 км ясно +9.0 -5.0 37 +7 +7 872.0
Ю 6 16 км ясно +12.0 -5.0 30 +10 +10 872.0
Ю 6 16 км ясно +14.0 -4.0 28 +12 +14 872.0
Ю 8 16 км ясно +14.0 -5.0 26 +12 +13 872.3
Ю 7
{10}
16 км ясно +15.0 -6.0 23 +13 +14 872.3
Ю 7 16 км ясно +16.0 -7.0 20 +15 +16 872.3
Ю 8
{11}
16 км ясно +16.0 -6.0 22 +15 +16 872.0
Ю 7
{12}
16 км ясно +16.0 -6.0 22 +15 +16 872.0
Ю 8
{11}
16 км ясно +17.0 -6.0 20 +16 +17 871.7
Ю 7
{13}
16 км ясно +17.0 -7.0 19 +16 +18 871.7
Ю 6
{11}
16 км ясно +17.0 -7.0 19 +16 +19 871.4
Ю 7
{12}
16 км ясно +18.0 -6.0 19 +17 +20 870.9
Ю 9
{12}
16 км ясно +18.0 -6.0 19 +17 +18 870.6
Ю 9
{12}
16 км ясно +18.0 -8.0 16 +17 +18 870.3
Ю 7
{10}
16 км ясно +18.0 -8.0 16 +17 +20 870.0
ЮЗ 6
{11}
16 км ясно +18.0 -9.0 15 +17 +21 869.7
Ю 5
{12}
16 км ясно +18.0 -8.0 16 +18 +22 869.4
Ю 7
{12}
16 км ясно +18.0 -9.0 15 +17 +19 869.1
Ю 6
{10}
16 км ясно +18.0 -9.0 15 +17 +20 868.8
ЮЗ 5
{8}
16 км ясно +19.0 -9.0 14 +19 +22 868.8
ЮЗ 9
{13}
16 км ясно +19.0 -12.0 11 +18 +18 868.8
ЮЗ 4
{9}
16 км ясно +18.0 -10.0 14 +18 +20 869.1
Ю 7 16 км ясно +18.0 -10.0 14 +17 +18 868.8
ЮЗ 6 16 км ясно +18.0 -11.0 13 +17 +18 868.8
Ю 6
{9}
16 км ясно +18.0 -11.0 13 +17 +18 868.8
ЮЗ 4 16 км ясно +17.0 -12.0 13 +17 +18 869.1
ЮЗ 3
{6}
16 км ясно +16.0 -12.0 13 +16 +16 868.8
Ю 3 16 км ясно +14.0 -11.0 17 +13 +14 868.8
Ю 3 16 км ясно +12.0 -11.0 19 +11 +11 869.1
ЮВ 3 16 км ясно +11.0 -10.0 22 +10 +10 868.8
ЮВ 4 16 км 5/5 1230 м +10.0 -10.0 23 +8 +8 868.8
ЮВ 4 16 км 8/5 1200 m
[Ac]
+10.0 -10.0 23 +8 +8 868.8
Ю 4 16 км 8/8 1050 м +10.0 -10.0 23 +8 +8 868.8
Ю 5 16 км 8/8 1020 м +9.0 -8.0 29 +6 +6 868.8
Ю 4 16 км 8/8 1020 м +10.0 -8.0 27 +8 +8 868.8
Ю 5 16 км 8/8 1050 м +11.0 -9.0 24 +9 +9 868.8
Местоположение метеостанции Alamogordo-White Sands Regional Airport: широта 32.8333 долгота -105.9833 высота над уровнем моря 1279 м.
В архиве по умолчанию представлена погода в Аламогордо за последние 1-2 суток. Обновление информации о фактической погоде в базе происходит ежечасно! Архивные данные за месяц целиком и за предыдущие месяцы Вы можете получить, выбрав интересующий диапазон дат из раскрывающегося списка и нажав кнопку "Ввод!".
Внимание! Архив погоды МЕТАР в базе сайта по станциям, не включенным в климатический монитор, хранится не более 60 дней. Нет смысла пытаться выбрать более раннюю дату.
*Определитесь, кто Вы:
Внимание! Время в таблицах - местное (без учета летнего времени). Для получения всемирного времени необходимо вычесть поправку, которая равна -7 ч.
Смотрите также архив погоды в соседних городах и на ближайших метеорологических станциях:
Партнеры нашего сайта:      
Пояснения к столбцам:
  • Ветер - указаны скорость ветра в м/с - средняя за 10 мин, порывы в срок и между сроками (в фигурных скобках) и направление, откуда дует ветер: С - северный,
  • СВ - северо-восточный, В - восточный, ЮВ - юго-восточный, Ю - южный, ЮЗ - юго-западный, З - западный, СЗ - северо-западный.
  • Видимость - горизонтальная дальность видимости в метрах или километрах. При видимости от 1 до 10 км при отсутствии осадков обычно наблюдается дымка, при ухудшении видимости до 1 км и менее - туман. В сухую погоду видимость может ухудшаться дымом, пылью или мглою.
  • Явления - указаны атмосферные явления, наблюдавшиеся в срок или в последний час перед сроком; фигурными скобками обозначены явления, наблюдавшиеся между сроками (за 1-3 часа до срока); квадратными скобками обозначены град или гололедные отложения с указанием их диаметра в мм.
  • Облачность - указаны через наклонную черту общая и нижняя облачность в баллах и высота нижней границы облаков в метрах; квадратными скобками обозначены формы облаков: Ci - перистые, Cs - перисто-слоистые, Cc - перисто-кучевые, Ac - высококучевые, As - высокослоистые, Sc - слоисто-кучевые, Ns - слоисто-дождевые, Cu - кучевые, Cb - кучево-дождевые. Подробнее классификацию облаков см. в Атласе облаков (PDF).
  • T - Температура воздуха - температура, измеренная на высоте 2 м над землей.
  • Td - Температура точки росы - температура, при понижении до которой содержащийся в воздухе водяной пар достигнет насыщения.
  • f - Относительная влажность воздуха - влажноcть воздуха, измеренная на высоте 2 м над землей.
  • Te - Эффективная температура - температура, которую ощущает одетый по сезону человек в тени. Характеристика душности погоды. При расчете учитывается влияние влажности воздуха и скорости ветра на теплоощущения человека.
  • Tes - Эффективная температура на солнце - температура, которую ощущает человек, с поправкой на солнечный нагрев. Характеристика знойности погоды. Зависит от высоты солнца над горизонтом, облачности и скорости ветра. Ночью, в пасмурную погоду, а также при ветре 12 м/с и более поправка равна нулю.
  • P - Атмосферное давление - приведенное к уровню моря атмосферное давление.
  • Po - Атмосферное давление - измеренное на уровне метеостанции атмосферное давление.
  • Tmin - Минимальная температура - минимум температуры воздуха на высоте 2 м над землей.
  • Tmax - Максимальная температура - максимум температуры воздуха на высоте 2 м над землей.
  • R - Количество осадков - Количество выпавших осадков за период времени, мм. При наведении курсора мыши на число - период времени, за который выпало указанное количество осадков.
  • R24 - Количество осадков - Количество выпавших осадков за 24 часа, мм.
  • S - Снежный покров - Высота снежного покрова, см. При наведении курсора мыши на число - состояние снежного покрова и степень покрытия местности в баллах.